Location: Newark
(14.9306°N, 3.4333°E)
Time: 05:50:52
(UTC+00:00)

OTV 5 (USA 277) - Visible Passes

Search period start: 19 October 2019 00:00
Search period end: 29 October 2019 00:00
Orbit: 310 x 324 km, 54.5° (Epoch: 08 October)

Date Brightness Start Highest point End Pass type
(mag) Time Alt. Az. Time Alt. Az. Time Alt. Az.
22 Oct ? 18:39:06 10° SSW 18:40:01 18° S 18:40:01 18° S visible
23 Oct ? 18:53:39 10° WSW 18:55:13 25° W 18:55:13 25° W visible
24 Oct ? 04:34:00 16° N 04:35:44 31° NE 04:38:10 10° ESE visible
25 Oct ? 04:49:12 27° WNW 04:50:13 41° WSW 04:52:47 10° SSE visible
25 Oct ? 17:48:19 10° SW 17:51:00 82° NW 17:53:42 10° NNE visible
26 Oct ? 18:03:43 10° W 18:05:33 16° NW 18:07:23 10° N visible
